Location: Zagreb
(45.8000°N, 16.0000°E)
Time: 00:31:35
(UTC+01:00)

Transit 2A Rocket - Pass Details

Date: 11 October 2020
Orbit: 586 x 916 km, 66.7° (Epoch: 28 October)

Event Time Altitude Azimuth Distance (km) Brightness Sun altitude
Rises 14:35:20 0° 205° (SSW) 3,518 9.5 31.2°
Reaches altitude 10° 14:37:50 10° 204° (SSW) 2,594 9.3 31.0°
Maximum altitude 14:43:56 75° 120° (ESE) 947 6.0 30.4°
Drops below altitude 10° 14:49:57 10° 36° (NE) 2,568 7.3 29.7°
Sets 14:52:25 0° 35° (NE) 3,481 7.9 29.5°
